Content
SEND FEEDBACK

Daily
Averages
Monthly
Summary
United States of America

NORTH TONAWANDA, NEW YORK


Home > North America > United States > New York
Elevation: 600 feet     Latitude: 43 01N     Longitude: 078 51W

WEATHER
 
SELECT A DAY
Number of Records: 235,961;   Date Range: 1/1/95 - 9/16/14
 
SHARE

PRINT THIS DATA

[ ← Previous Day ]
WEATHER ALMANAC - FEBRUARY 8, 2014
[ Next Day → ]
[ °C ]   °F
Weather ElementAverageHighLow
Temperature10.7 °F15.8 °F (3:25 pm)5 °F (5:36 am)
Dewpoint4.4 °F9 °F (8:53 pm)-0.4 °F (5:36 am)
Humidity76 %80 % (2:53 am)68 % (3:25 pm)
Barometer30.30 in30.38 in (5:53 am)30.20 in (9:12 pm)
Wind Speed12.1 mph17.3 mph (4:53 am)
Wind Gust23 mph (12:53 am)
Weather ElementAverage
Visibility9.4 mi
Wind DirectionSW (230.6 °)

Weather ElementTotal
Precipitation---
Heating Degree Days54.6 (Base 65)
Averaged from 33 records on February 8, 2014
WEATHER CONDITIONS BREAKOUT
WIND DIRECTION BREAKOUT
WEATHER BY HOUR - FEBRUARY 8, 2014
[ °C ]   °F
Local TimeTemperatureDewpointHumidityBarometerVisibilityWind DirectionWind SpeedGust SpeedPrecipitationEventsConditions
12:40 AM8.6 °F1.4 °F73 %30.26 in10.0 miWSW (240°)12.7 mphMostly Cloudy
12:53 AM8.1 °F1.9 °F76 %30.35 in10.0 miWSW (240°)11.5 mph23.0 mphMostly Cloudy
1:53 AM8.1 °F1.9 °F76 %30.35 in10.0 miSW (230°)16.1 mphMostly Cloudy
2:34 AM6.8 °F1.4 °F79 %30.28 in10.0 miSW (230°)15.0 mphScattered Clouds
2:53 AM7.0 °F1.9 °F80 %30.36 in10.0 miSW (230°)13.8 mphClear
3:53 AM7.0 °F1.0 °F77 %30.36 in10.0 miSW (230°)16.1 mphClear
4:53 AM6.1 °F1.0 °F80 %30.36 in10.0 miSW (230°)17.3 mphClear
5:36 AM5.0 °F-0.4 °F78 %30.28 in10.0 miSW (230°)11.5 mphScattered Clouds
5:43 AM5.0 °F-0.4 °F78 %30.29 in10.0 miSW (230°)11.5 mphMostly Cloudy
5:53 AM5.0 °F0.0 °F80 %30.38 in10.0 miSW (230°)12.7 mphMostly Cloudy
6:53 AM5.0 °F0.0 °F80 %30.37 in10.0 miSW (220°)13.8 mphOvercast
7:09 AM6.8 °F-0.4 °F72 %30.29 in10.0 miSW (220°)13.8 mphOvercast
7:53 AM6.1 °F1.0 °F80 %30.38 in10.0 miSW (230°)8.1 mphOvercast
8:53 AM6.1 °F1.0 °F80 %30.38 in10.0 miSW (230°)11.5 mphMostly Cloudy
9:53 AM8.1 °F1.9 °F76 %30.38 in10.0 miSW (230°)13.8 mphMostly Cloudy
10:53 AM10.9 °F3.9 °F73 %30.37 in8.0 miSW (230°)12.7 mphMostly Cloudy
11:53 AM12.0 °F5.0 °F73 %30.34 in10.0 miWSW (240°)12.7 mphMostly Cloudy
12:53 PM12.9 °F6.1 °F74 %30.32 in10.0 miSW (220°)12.7 mphMostly Cloudy
1:53 PM14.0 °F7.0 °F74 %30.30 in10.0 miSW (220°)10.4 mphMostly Cloudy
2:06 PM14.0 °F6.8 °F73 %30.22 in10.0 miWSW (240°)13.8 mphMostly Cloudy
2:53 PM15.1 °F8.1 °F74 %30.29 in10.0 miSSW (210°)9.2 mphMostly Cloudy
3:25 PM15.8 °F6.8 °F68 %30.21 in10.0 miSW (220°)13.8 mphOvercast
3:42 PM15.8 °F6.8 °F68 %30.21 in10.0 miSW (230°)13.8 mphOvercast
3:53 PM15.1 °F6.1 °F68 %30.29 in10.0 miWSW (240°)13.8 mphOvercast
4:53 PM15.1 °F7.0 °F70 %30.29 in10.0 miSW (230°)15.0 mphOvercast
5:53 PM14.0 °F8.1 °F77 %30.28 in10.0 miWSW (240°)12.7 mphMostly Cloudy
6:53 PM14.0 °F8.1 °F77 %30.28 in10.0 miWSW (240°)12.7 mphOvercast
7:53 PM14.0 °F8.1 °F77 %30.27 in10.0 miSW (230°)9.2 mphOvercast
8:53 PM14.0 °F9.0 °F80 %30.27 in10.0 miSW (230°)9.2 mphOvercast
9:12 PM14.0 °F8.6 °F79 %30.20 in10.0 miWSW (250°)9.2 mph0.00 inSnowLight Snow
9:53 PM14.0 °F9.0 °F80 %30.28 in5.0 miWest (260°)8.1 mph0.00 inSnowLight Snow
10:53 PM14.0 °F8.1 °F77 %30.27 in5.0 miSW (230°)8.1 mph0.00 inSnowLight Snow
11:53 PM14.0 °F9.0 °F80 %30.26 in2.5 miSSW (200°)4.6 mph0.00 inSnowLight Snow
Hourly data recorded from KIAG, located miles away from North Tonawanda, New York







STORIES FROM OUR PARTNERS